Home > Weather > Ponta Delgada > Past weeks

Flag for Portugal Weather for the Past 2 Weeks in Ponta Delgada, Azores, Portugal

Now
63 °F

Partly sunny.


Feels Like: 63 °F
Forecast: 57 / 63 °F
Wind: 8 mph from Southeast

Location: Ponta Delgada / Nordela Acores

Current Time: May 1, 2016 at 4:33:37 PM

Latest Report: May 1, 2016 at 4:00 PM


Visibility: N/A

Pressure: 30.45 "Hg

Humidity: 59%

Dew Point: 48 °F

Location of Ponta DelgadaLocation

Historic Weather in Ponta Delgada — Graph

°F

Ponta Delgada Temperature Yesterday

Maximum temperature yesterday: 64 °F (at 11:30 AM)
Minimum temperature yesterday: 55 °F (at 1:30 AM)
Average temperature yesterday: 60 °F

High & Low Weather Summary for the Past Weeks

 TemperatureHumidityPressure
High66 °F (Apr 24, 4:30 PM)100% (Apr 22, 8:30 PM)30.48 "Hg (Apr 22, 8:30 PM)
Low50 °F (Apr 19, 5:00 AM)56% (Apr 30, 6:00 PM)29.83 "Hg (Apr 17, 4:00 PM)
Average60 °F81%30.02 "Hg
* Reported Apr 16 3:00 PM — May 1 3:30 PM, Ponta Delgada, Weather by CustomWeather, © 2016

Note: Actual official high and low records may vary slightly from our data, if they occured in-between our weather recording intervals... More about our weather records

Advertising

Ponta Delgada Weather History for the Previous 24 Hours

Scroll right to see more
 ConditionsComfort  
Time TempWeatherWind HumidityBarometerVisibility
3:30 PM
Sun, May 1
63 °FPartly sunny.8 mph59%30.45 "HgN/A
3:00 PM61 °FPartly sunny.7 mph59%30.45 "HgN/A
2:30 PM63 °FPartly sunny.7 mph59%30.45 "HgN/A
2:00 PM61 °FPartly sunny.9 mph63%30.45 "HgN/A
1:30 PM63 °FPartly sunny.10 mph59%30.45 "HgN/A
1:00 PM63 °FPartly sunny.13 mph64%30.45 "HgN/A
12:30 PM63 °FPartly sunny.12 mph56%30.48 "HgN/A
12:00 PM63 °FPartly sunny.9 mph59%30.48 "HgN/A
11:30 AM61 °FPartly sunny.10 mph63%30.48 "HgN/A
11:00 AM61 °FPartly sunny.8 mph59%30.45 "HgN/A
10:30 AM61 °FPartly sunny.7 mph63%30.45 "HgN/A
10:00 AM61 °FPartly sunny.7 mph63%30.45 "HgN/A
9:30 AM61 °FPartly sunny.6 mph63%30.45 "HgN/A
9:00 AM59 °FPartly sunny.6 mph63%30.45 "HgN/A
8:30 AM59 °FPartly sunny.6 mph68%30.45 "HgN/A
8:00 AM59 °FPartly sunny.6 mph63%30.45 "HgN/A
7:30 AM59 °FPassing clouds.6 mph68%30.45 "HgN/A
7:00 AM57 °FPassing clouds.6 mph67%30.42 "HgN/A
6:30 AM57 °FPassing clouds.5 mph67%30.42 "HgN/A
6:00 AM57 °FPassing clouds.2 mph67%30.42 "HgN/A
5:30 AM57 °FPassing clouds.2 mph72%30.42 "HgN/A
4:30 AM57 °FPassing clouds.3 mph67%30.42 "HgN/A
4:00 AM57 °FPassing clouds.5 mph67%30.42 "HgN/A
3:30 AM57 °FPassing clouds.5 mph67%30.42 "HgN/A
2:30 AM57 °FPassing clouds.5 mph72%30.42 "HgN/A
2:00 AM57 °FPassing clouds.8 mph72%30.45 "HgN/A
1:30 AM57 °FPassing clouds.5 mph72%30.45 "HgN/A
1:00 AM59 °FPassing clouds.8 mph68%30.45 "HgN/A
12:30 AM59 °FPassing clouds.7 mph72%30.45 "HgN/A
12:00 AM59 °FPassing clouds.8 mph72%30.45 "HgN/A
11:30 PM
Sat, Apr 30
59 °FPassing clouds.9 mph72%30.45 "HgN/A
11:00 PM59 °FPassing clouds.9 mph72%30.45 "HgN/A
10:30 PM59 °FPassing clouds.8 mph72%30.45 "HgN/A
10:00 PM59 °FPassing clouds.8 mph72%30.45 "HgN/A
9:30 PM59 °FScattered clouds.9 mph72%30.45 "HgN/A
9:00 PM59 °FScattered clouds.10 mph72%30.45 "HgN/A
8:30 PM59 °FPassing clouds.12 mph72%30.42 "HgN/A
8:00 PM61 °FPassing clouds.12 mph68%30.42 "HgN/A
7:30 PM61 °FPassing clouds.13 mph68%30.39 "HgN/A
7:00 PM61 °FPassing clouds.14 mph63%30.42 "HgN/A
6:30 PM63 °FScattered clouds.13 mph56%30.42 "HgN/A
6:00 PM63 °FPartly sunny.12 mph56%30.42 "HgN/A
5:30 PM63 °FPartly sunny.10 mph59%30.42 "HgN/A
5:00 PM61 °FPartly sunny.14 mph63%30.42 "HgN/A
4:30 PM63 °FPartly sunny.14 mph59%30.42 "HgN/A
4:00 PM63 °FPartly sunny.14 mph59%30.42 "HgN/A
Weather by CustomWeather, © 2016

See weather overviewHow to use our weather pages